Zurück zum Katalog

SL-12 R/B(2)

AktivMEO
NORAD 29673·ROCKET BODY·🇷🇺 Russia

Gestartet Dec 25, 2006 von Baikonur Cosmodrome

Loading…

Nächste Überflüge (nächste 24 Stunden)

TLE

AktuellSource: Space-Track

Epoche: Sep 14, 2026, 12:35 UTC

1 29673U 06062D   26257.52496638  .00000020  00000-0  00000-0 0  9998
2 29673  64.7058 190.6421 0028593 193.7483 338.7727  2.13404159153896

Verfolge SL-12 R/B(2) in Echtzeit mit AllMySat

Download on the App Store